Location: Houston
(29.7630°N, 95.3630°W)
Time: 16:34:43
(UTC-05:00)

Amateur Radio Satellites - All Passes

Search period start: 17 September 2014 16:04
Search period end: 18 September 2014 16:04
Location: Houston, 29.7630°N, 95.3630°W

Satellite Date Start Highest point End Downlink Frequencies (MHz)
Time Altitude Azimuth
JAS-1B 17 Sep 16:07:48 16:15:17 28° 262° (W) 16:22:00 435.800 - 435.900 CW/SSB
AO-Echo 17 Sep 16:10:45 16:12:11 11° 266° (W) 16:13:37 ?
ITAMSAT 1 17 Sep 16:16:07 16:18:32 13° 266° (W) 16:20:57 435.822 SSB
Uribyol 2 17 Sep 16:22:22 16:23:26 11° 267° (W) 16:24:30 436.500 FM
TMSAT-1 17 Sep 16:26:21 16:31:07 34° 262° (W) 16:35:54 436.925 FM
Uosat F 17 Sep 17:14:38 17:19:36 70° 258° (WSW) 17:24:35 435.120 FM
AO-7 17 Sep 17:26:30 17:34:40 60° 256° (WSW) 17:42:51 29.400 - 29.500 MHz
RS-15 17 Sep 17:31:33 17:37:07 15° 259° (W) 17:42:49 29.354 - 29.394 USB, Beacon 29.352 USB
JAS-2 17 Sep 17:40:28 17:44:39 23° 70° (ENE) 17:48:41 435.800 - 435.900 CW/SSB, 435.910 FM
OPAL 17 Sep 18:13:58 18:19:09 81° 286° (WNW) 18:24:13 ?
Hamsat 17 Sep 18:16:01 18:20:11 47° 75° (ENE) 18:24:22 145.90 MHz
Saudisat 1A 17 Sep 18:18:28 18:22:46 55° 299° (WNW) 18:27:06 436.775 MHz
STRAND 1 17 Sep 18:53:51 18:55:44 12° 94° (E) 18:57:36 ?
KITSAT 1 17 Sep 18:59:15 19:05:39 27° 105° (ESE) 19:12:02 435.175 FM
JAS-2 17 Sep 19:24:52 19:29:37 30° 261° (W) 19:34:08 435.800 - 435.900 CW/SSB, 435.910 FM
SO-67 17 Sep 19:43:54 19:47:19 66° 78° (ENE) 19:50:45 435.3500 MHz FM
Hamsat 17 Sep 19:55:30 19:56:17 10° 267° (W) 19:57:05 145.90 MHz
MaSat-1 17 Sep 20:04:32 20:07:37 29° 255° (WSW) 20:10:19 437.345 MHz
STRAND 1 17 Sep 20:30:07 20:35:09 57° 286° (WNW) 20:40:10 ?
HO-68 17 Sep 20:39:31 20:45:24 29° 66° (ENE) 20:51:18 435.675 MHz FM
KITSAT 1 17 Sep 20:52:41 21:00:31 53° 299° (WNW) 21:08:24 435.175 FM
Oscar 11 17 Sep 21:20:09 21:21:51 12° 68° (ENE) 21:23:33 145.825 FM, Beacon 2401.500 USB
UKube-1 17 Sep 21:32:39 21:36:15 26° 72° (ENE) 21:39:52 145.840 MHz, 145.915 MHz
AO-40 17 Sep 21:54:12 02:20:41 40° 126° (SE) 03:49:13 Beacon 2401.320
Sapphire 17 Sep 22:12:22 22:16:49 25° 58° (ENE) 22:21:14 437.095 MHz 1200 baud AX-25 AFSK
HO-68 17 Sep 22:26:07 22:32:46 43° 260° (W) 22:39:29 435.675 MHz FM
FUNcube-1 17 Sep 22:37:44 22:41:45 39° 74° (ENE) 22:45:52 145.950 - 145.970 MHz USB
PCSat 17 Sep 22:39:02 22:44:17 49° 63° (ENE) 22:49:29 145.825 MHz
Oscar 11 17 Sep 22:53:27 22:57:35 43° 261° (W) 23:01:45 145.825 FM, Beacon 2401.500 USB
UKube-1 17 Sep 23:09:18 23:12:22 19° 264° (W) 23:15:26 145.840 MHz, 145.915 MHz
SO-50 17 Sep 23:23:49 23:28:11 58° 299° (WNW) 23:32:39 436.795 FM
UOSAT-12 17 Sep 23:36:33 23:37:19 10° 106° (ESE) 23:38:04 437.025 FM, 437.400 FM
Sapphire 17 Sep 23:55:23 00:00:12 33° 252° (WSW) 00:04:59 437.095 MHz 1200 baud AX-25 AFSK
FUNcube-1 18 Sep 00:16:20 00:18:16 13° 267° (W) 00:20:13 145.950 - 145.970 MHz USB
PCSat 18 Sep 00:24:00 00:27:13 16° 256° (WSW) 00:30:25 145.825 MHz
UOSAT-12 18 Sep 01:12:22 01:16:52 57° 299° (WNW) 01:21:28 437.025 FM, 437.400 FM
Oscar 19 18 Sep 01:37:50 01:39:30 11° 93° (E) 01:41:09 437.125 CW, 437.150 USB
PANSAT 18 Sep 02:03:36 02:06:53 27° 160° (SSE) 02:10:11 not established
JAS-1B 18 Sep 02:11:41 02:13:58 12° 94° (E) 02:16:16 435.800 - 435.900 CW/SSB
ISS 18 Sep 02:11:43 02:13:53 16° 126° (SE) 02:16:03 145.800 FM
Oscar 16 18 Sep 02:13:42 02:18:18 32° 98° (E) 02:22:51 437.025 USB, Beacon 2401.1428
AO-Echo 18 Sep 02:41:52 02:46:01 27° 98° (E) 02:50:15 ?
Saudisat 1A 18 Sep 02:51:30 02:54:52 21° 55° (NE) 02:58:13 436.775 MHz
ITAMSAT 1 18 Sep 02:53:11 02:57:46 31° 98° (E) 03:02:20 435.822 SSB
Uribyol 2 18 Sep 02:57:41 03:02:31 37° 99° (E) 03:07:19 436.500 FM
TMSAT-1 18 Sep 03:10:17 03:12:56 14° 94° (E) 03:15:35 436.925 FM
Oscar 10/S400 18 Sep 03:11:26 04:32:53 37° 245° (WSW) 08:59:03 145.825 - 145.975 CW/USB, Beacon 145.810 USB
Oscar 19 18 Sep 03:14:02 03:19:06 59° 285° (WNW) 03:24:08 437.125 CW, 437.150 USB
RS-15 18 Sep 03:22:05 03:30:09 23° 103° (ESE) 03:38:01 29.354 - 29.394 USB, Beacon 29.352 USB
AO-27 18 Sep 03:27:10 03:32:24 75° 102° (ESE) 03:37:36 436.795 MHz FM
PANSAT 18 Sep 03:43:01 03:46:49 63° 172° (S) 03:50:37 not established
ISS 18 Sep 03:47:26 03:50:23 29° 319° (NW) 03:53:21 145.800 FM
Oscar 16 18 Sep 03:53:26 03:57:24 23° 291° (WNW) 04:01:20 437.025 USB, Beacon 2401.1428
JAS-1B 18 Sep 03:59:26 04:04:58 55° 287° (WNW) 04:10:36 435.800 - 435.900 CW/SSB
Gurwin Techsat 1B 18 Sep 04:09:32 04:14:52 88° 103° (ESE) 04:20:10 435.225 FM
AO-Echo 18 Sep 04:20:46 04:24:37 24° 289° (WNW) 04:28:33 ?
Saudisat 1A 18 Sep 04:30:37 04:34:24 28° 249° (WSW) 04:38:09 436.775 MHz
ITAMSAT 1 18 Sep 04:32:57 04:37:02 24° 291° (WNW) 04:41:07 435.822 SSB
Uribyol 2 18 Sep 04:37:57 04:41:40 20° 292° (WNW) 04:45:23 436.500 FM
TMSAT-1 18 Sep 04:47:55 04:53:03 52° 286° (WNW) 04:58:10 436.925 FM
KITSAT 1 18 Sep 04:53:09 04:59:53 28° 54° (NE) 05:06:34 435.175 FM
OPAL 18 Sep 05:22:43 05:27:52 89° 255° (WSW) 05:33:05 ?
PANSAT 18 Sep 05:23:05 05:26:54 70° 185° (S) 05:30:44 not established
Uosat F 18 Sep 05:28:26 05:33:24 60° 101° (ESE) 05:38:21 435.120 FM
RS-15 18 Sep 05:30:19 05:41:25 72° 298° (WNW) 05:52:20 29.354 - 29.394 USB, Beacon 29.352 USB
AO-7 18 Sep 05:34:44 05:43:00 71° 105° (ESE) 05:51:15 29.400 - 29.500 MHz
Hamsat 18 Sep 06:09:39 06:11:38 13° 94° (E) 06:13:36 145.90 MHz
JAS-2 18 Sep 06:37:28 06:43:22 43° 100° (E) 06:49:57 435.800 - 435.900 CW/SSB, 435.910 FM
KITSAT 1 18 Sep 06:47:45 06:55:32 54° 250° (WSW) 07:03:17 435.175 FM
PANSAT 18 Sep 07:03:23 07:06:54 35° 197° (SSW) 07:10:25 not established
Uosat F 18 Sep 07:09:52 07:11:36 12° 294° (WNW) 07:13:21 435.120 FM
AO-7 18 Sep 07:29:17 07:34:58 21° 300° (WNW) 07:40:39 29.400 - 29.500 MHz
STRAND 1 18 Sep 07:39:54 07:44:58 74° 258° (WSW) 07:50:03 ?
Hamsat 18 Sep 07:43:48 07:47:39 35° 286° (WNW) 07:51:28 145.90 MHz
RS-15 18 Sep 07:49:37 07:55:58 17° 322° (NW) 08:02:21 29.354 - 29.394 USB, Beacon 29.352 USB
SO-50 18 Sep 08:01:27 08:05:28 26° 56° (NE) 08:09:30 436.795 FM
MaSat-1 18 Sep 08:07:30 08:11:08 21° 103° (ESE) 08:14:50 437.345 MHz
JAS-2 18 Sep 08:23:19 08:28:10 25° 290° (WNW) 08:33:28 435.800 - 435.900 CW/SSB, 435.910 FM
PANSAT 18 Sep 08:45:40 08:46:36 11° 207° (SSW) 08:47:33 not established
SO-67 18 Sep 08:46:21 08:49:35 39° 284° (WNW) 08:52:48 435.3500 MHz FM
SO-50 18 Sep 09:41:49 09:45:57 28° 249° (WSW) 09:50:05 436.795 FM
MaSat-1 18 Sep 09:43:07 09:47:38 35° 296° (WNW) 09:52:14 437.345 MHz
UOSAT-12 18 Sep 09:48:17 09:52:06 24° 55° (NE) 09:55:52 437.025 FM, 437.400 FM
HO-68 18 Sep 09:59:54 10:06:53 53° 102° (ESE) 10:13:50 435.675 MHz FM
ISS 18 Sep 10:21:15 10:23:29 17° 37° (NE) 10:25:42 145.800 FM
FUNcube-1 18 Sep 10:34:31 10:36:47 13° 94° (E) 10:39:00 145.950 - 145.970 MHz USB
Oscar 11 18 Sep 10:46:57 10:51:11 52° 100° (E) 10:55:23 145.825 FM, Beacon 2401.500 USB
UKube-1 18 Sep 11:02:03 11:06:23 69° 284° (WNW) 11:10:42 145.840 MHz, 145.915 MHz
UOSAT-12 18 Sep 11:28:13 11:32:10 27° 249° (WSW) 11:36:03 437.025 FM, 437.400 FM
PCSat 18 Sep 11:34:05 11:36:56 15° 104° (ESE) 11:39:48 145.825 MHz
HO-68 18 Sep 11:48:41 11:54:05 24° 296° (WNW) 11:59:30 435.675 MHz FM
ISS 18 Sep 11:57:13 12:00:15 33° 231° (SW) 12:03:17 145.800 FM
FUNcube-1 18 Sep 12:08:56 12:13:16 41° 286° (WNW) 12:17:33 145.950 - 145.970 MHz USB
RS-15 18 Sep 12:28:48 12:35:47 18° 40° (NE) 12:42:51 29.354 - 29.394 USB, Beacon 29.352 USB
Sapphire 18 Sep 12:47:14 12:52:36 77° 112° (ESE) 12:58:01 437.095 MHz 1200 baud AX-25 AFSK
JAS-1B 18 Sep 12:52:37 12:54:12 11° 62° (ENE) 12:55:44 435.800 - 435.900 CW/SSB
PCSat 18 Sep 13:14:34 13:19:49 53° 297° (WNW) 13:25:07 145.825 MHz
Oscar 10/S400 18 Sep 13:22:01 13:50:50 26° 156° (SSE) 14:05:52 145.825 - 145.975 CW/USB, Beacon 145.810 USB
Oscar 16 18 Sep 13:25:06 13:29:19 26° 70° (ENE) 13:33:33 437.025 USB, Beacon 2401.1428
AO-Echo 18 Sep 13:50:07 13:53:23 19° 70° (ENE) 13:56:37 ?
ITAMSAT 1 18 Sep 14:05:44 14:09:56 26° 70° (ENE) 14:14:09 435.822 SSB
Uribyol 2 18 Sep 14:09:58 14:14:26 31° 71° (ENE) 14:18:56 436.500 FM
Oscar 19 18 Sep 14:24:36 14:29:46 76° 258° (WSW) 14:34:59 437.125 CW, 437.150 USB
TMSAT-1 18 Sep 14:26:10 14:28:22 13° 66° (ENE) 14:30:34 436.925 FM
Sapphire 18 Sep 14:34:37 14:36:34 12° 308° (NW) 14:38:31 437.095 MHz 1200 baud AX-25 AFSK
JAS-1B 18 Sep 14:34:47 14:43:53 72° 74° (ENE) 14:51:33 435.800 - 435.900 CW/SSB
RS-15 18 Sep 14:38:59 14:50:13 75° 62° (ENE) 15:01:56 29.354 - 29.394 USB, Beacon 29.352 USB
AO-27 18 Sep 14:39:22 14:44:26 61° 75° (ENE) 14:49:32 436.795 MHz FM
Oscar 16 18 Sep 15:04:06 15:08:29 28° 263° (W) 15:12:55 437.025 USB, Beacon 2401.1428
Gurwin Techsat 1B 18 Sep 15:24:31 15:29:48 77° 76° (ENE) 15:35:06 435.225 FM
AO-Echo 18 Sep 15:27:36 15:31:54 33° 261° (W) 15:36:08 ?
ITAMSAT 1 18 Sep 15:44:54 15:49:15 28° 262° (W) 15:53:39 435.822 SSB
Uribyol 2 18 Sep 15:49:48 15:53:50 23° 263° (W) 15:57:54 436.500 FM
